Showing default

HULIANWANG DIGUI-31, 64284

Orbit data source: Space-Track

HULIANWANG DIGUI-31, 64284 is a payload satellite owned by Zhongguo Xingwang (CN) in LEO that was launched on Thu, 05 Jun 2025 UTC via a CHANG ZHENG 6A launch vehicle from the Taiyaun Space Center, China (TSC). Payload-class satellites include a variety of spacecraft equipped with specific instruments for various scientific and technological missions. These include communications satellites like Starlink; space stations such as the ISS; scientific satellites like the Hubble; Earth observation satellites from companies like Planet Labs, Umbra, and HawkEye 360; GPS; miniature CubeSats for education and research; and military/defense satellites.

Loading next visibility...
Identifier
64284, 2025-121B
Orbit
LEO
Country
Flag of CNCN / PRC
Related business
Manufacturer
SECM
Mission
Operational Civil Communications
Bus & Motor
XINGWANG S, Unknown motor
Mass
~800 kg wet, ~800 kg dry
Launch date (UTC)
2025-06-05 (1 year ago)
Launch vehicle
CHANG ZHENG 6A
Launch site
Taiyaun Space Center, China (TSC)
Object type
Payload
Rocket body
Debris
Shape & HBR
Box + 2 Pan, 5.0 m
Radar Cross Section
5.935 m², Large (>1 m²)

Expand to show TLE details & history
Last TLE update: 10 hours ago

TLE from 10 hours ago
0 HULIANWANG DIGUI-31
1 64284U 25121B   26144.89192127  .00000033  00000-0  42348-4 0  9992
2 64284  86.5030  21.4884 0001717  88.4090 271.7241 13.24412021 47072
Epoch: 2026-05-24T21:24Z
TLE epoch observation values (Epoch: 2026-05-24T21:24:21.997Z)
Latitude
-0.00001°
Longitude
177.90919°
Altitude
1,170.77 km
Speed
7.268 km/s
True Right ascension
01h 25m 57s
True Declination
0° 00' 00"
Sunlit
Object was in daylight at epoch
Visualization orbit readout
Latitude
Unknown
Longitude
Unknown
Altitude
Unknown
Speed
Unknown
Apparent Right ascension
Unknown
Apparent Declination
Unknown
Sunlit
N/A
Visualization observer readout
Local Sidereal Time
16:37:51
Azimuth
Unknown
Elevation
Unknown
Doppler factor
Unknown
Orbital elements
Apogee altitude
1,166.33 km
Perigee altitude
1,163.739 km
Semi-major axis
7,543.171 km
Eccentricity
0.00017
Inclination
86.503°
RAAN
21.4884°
Arg. of periapsis
88.409°
True anomaly
271.70443°
Mean anomaly
271.7241°
Eccentric anomaly
271.71427°
Mean motion
3.31293 °/min
Orbital period
108.67 mins
BSTAR
0.000042348
Loading maneuver chart data...
Computing Atmospheric mass density...
Loading historical data...
Loading historical data...
Loading historical data...
Loading historical data...
Loading historical data...
Loading historical data...
Loading historical data...

Documentation

Showing up to 5 results
|